ワイランド彗星

C/2018 K1 ( Weiland )

English version
Home page
Updated on October 22, 2018

---------------------------------------------------------------------

・ プロフィール

発見日 2018年5月25日
発見光度 17.1等
発見者 Henry Weiland (Asteroid Terrestrial-impact Last Alert System (ATLAS) search program)

・ 写真集

・ 軌道要素

Epoch 2018 Mar. 23.0 TT = JDT 2458200.5
T 2018 Apr. 6.89603 TT                                  MPCW
q   1.8791675            (2000.0)            P               Q
n   0.00602769     Peri.  325.00189     +0.40125898     -0.87579884
a  29.9021254      Node   260.00198     -0.76591787     -0.48144284
e   0.9371561      Incl.  164.19259     -0.50235549     +0.03448459
P 164
From 148 observations 2017 Nov. 6-2018 July 15, mean residual 0".6.

・ 星図

・ 光度変化

        m1 = 8.2 + 5 logΔ + 25.0 log r

---------------------------------------------------------------------

軌道要素はM.P.E.C. 2018-S50に掲載されたものです。
星図はステラナビゲータ Ver.10 (アストロアーツ) で作成したものです。
光度グラフはComet for Windowsで作成したものです。

---------------------------------------------------------------------

Copyright(C) Seiichi Yoshida (comet@aerith.net). All rights reserved.